TimeCST,TemperatureF,Dew PointF,Humidity,Sea Level PressureIn,VisibilityMPH,Wind Direction,Wind SpeedMPH,Gust SpeedMPH,PrecipitationIn,Events,Conditions,WindDirDegrees,DateUTC
12:53 AM,60.1,57.0,90,29.97,10.0,Calm,Calm,-,N/A,,Overcast,0,2012-12-07 06:53:00
1:53 AM,60.1,57.0,90,29.96,10.0,Calm,Calm,-,N/A,,Overcast,0,2012-12-07 07:53:00
2:53 AM,59.0,57.0,93,29.96,9.0,Calm,Calm,-,N/A,,Mostly Cloudy,0,2012-12-07 08:53:00
3:17 AM,59.0,55.4,88,29.97,9.0,Calm,Calm,-,N/A,,Mostly Cloudy,0,2012-12-07 09:17:00
3:28 AM,59.0,57.2,94,29.96,10.0,Calm,Calm,-,N/A,,Mostly Cloudy,0,2012-12-07 09:28:00
3:53 AM,59.0,55.9,90,29.96,9.0,Calm,Calm,-,N/A,,Overcast,0,2012-12-07 09:53:00
4:01 AM,59.0,55.4,88,29.96,10.0,Calm,Calm,-,N/A,,Overcast,0,2012-12-07 10:01:00
4:21 AM,57.2,57.2,100,29.96,1.5,Calm,Calm,-,N/A,,Overcast,0,2012-12-07 10:21:00
4:31 AM,59.0,57.2,94,29.96,0.5,Calm,Calm,-,N/A,Fog,Fog,0,2012-12-07 10:31:00
4:44 AM,59.0,57.2,94,29.96,0.2,Calm,Calm,-,N/A,Fog,Fog,0,2012-12-07 10:44:00
4:53 AM,59.0,57.9,96,29.96,0.2,Calm,Calm,-,N/A,Fog,Fog,0,2012-12-07 10:53:00
5:36 AM,60.8,57.2,88,29.97,0.5,ESE,3.5,-,N/A,Fog,Fog,120,2012-12-07 11:36:00
5:53 AM,60.1,57.9,93,29.98,1.5,ESE,3.5,-,N/A,,Overcast,110,2012-12-07 11:53:00
6:23 AM,60.8,59.0,94,29.99,0.8,Calm,Calm,-,N/A,,Mist,0,2012-12-07 12:23:00
6:33 AM,60.8,57.2,88,29.99,1.0,ESE,3.5,-,N/A,,Mist,110,2012-12-07 12:33:00
6:53 AM,60.1,57.9,93,29.99,0.8,East,3.5,-,N/A,,Mist,100,2012-12-07 12:53:00
7:05 AM,60.8,57.2,88,29.99,0.2,East,4.6,-,N/A,Fog,Fog,100,2012-12-07 13:05:00
7:53 AM,60.1,59.0,96,30.01,0.2,Calm,Calm,-,N/A,Fog,Fog,0,2012-12-07 13:53:00
8:53 AM,61.0,60.1,97,30.00,0.2,SE,4.6,-,N/A,Fog,Fog,130,2012-12-07 14:53:00
9:50 AM,62.6,60.8,94,30.01,0.5,Calm,Calm,-,N/A,Fog,Fog,0,2012-12-07 15:50:00
9:53 AM,62.1,61.0,96,30.01,0.5,Calm,Calm,-,N/A,Fog,Fog,0,2012-12-07 15:53:00
10:16 AM,62.6,60.8,94,30.01,1.0,Calm,Calm,-,N/A,,Overcast,0,2012-12-07 16:16:00
10:35 AM,62.6,60.8,94,30.00,2.0,East,3.5,-,N/A,,Overcast,80,2012-12-07 16:35:00
10:49 AM,62.6,62.6,100,30.00,3.0,Calm,Calm,-,N/A,,Overcast,0,2012-12-07 16:49:00
10:53 AM,63.0,62.1,97,30.00,4.0,Calm,Calm,-,N/A,,Overcast,0,2012-12-07 16:53:00
11:53 AM,66.9,62.1,84,29.97,9.0,SE,3.5,-,N/A,,Overcast,130,2012-12-07 17:53:00
11:58 AM,66.2,62.6,88,29.97,9.0,SE,4.6,-,N/A,,Overcast,130,2012-12-07 17:58:00
12:53 PM,71.1,62.1,73,29.94,10.0,Calm,Calm,-,N/A,,Mostly Cloudy,0,2012-12-07 18:53:00
1:16 PM,71.6,62.6,73,29.93,10.0,SE,4.6,-,N/A,,Mostly Cloudy,140,2012-12-07 19:16:00
1:37 PM,73.4,60.8,65,29.93,10.0,Variable,5.8,-,N/A,,Mostly Cloudy,0,2012-12-07 19:37:00
1:53 PM,73.0,60.1,64,29.92,10.0,South,8.1,-,N/A,,Mostly Cloudy,170,2012-12-07 19:53:00
2:01 PM,71.6,60.8,69,29.92,10.0,SSE,5.8,-,N/A,,Mostly Cloudy,160,2012-12-07 20:01:00
2:53 PM,72.0,60.1,66,29.91,10.0,SE,5.8,-,N/A,,Overcast,140,2012-12-07 20:53:00
3:53 PM,72.0,60.1,66,29.91,10.0,SE,4.6,-,N/A,,Overcast,140,2012-12-07 21:53:00
4:53 PM,68.0,61.0,78,29.91,10.0,SE,4.6,-,N/A,,Scattered Clouds,140,2012-12-07 22:53:00
5:53 PM,66.0,60.1,81,29.93,10.0,SE,3.5,-,N/A,,Partly Cloudy,130,2012-12-07 23:53:00
7:44 PM,64.4,60.8,88,29.95,10.0,SE,3.5,-,N/A,,Overcast,130,2012-12-08 01:44:00
7:53 PM,64.0,61.0,90,29.95,10.0,Calm,Calm,-,N/A,,Mostly Cloudy,0,2012-12-08 01:53:00
8:08 PM,64.4,60.8,88,29.95,10.0,SSE,4.6,-,N/A,,Mostly Cloudy,150,2012-12-08 02:08:00
8:53 PM,64.0,61.0,90,29.95,10.0,Calm,Calm,-,N/A,,Partly Cloudy,0,2012-12-08 02:53:00
9:06 PM,62.6,60.8,94,29.96,9.0,Calm,Calm,-,N/A,,Mostly Cloudy,0,2012-12-08 03:06:00
9:53 PM,64.0,61.0,90,29.96,10.0,Calm,Calm,-,N/A,,Overcast,0,2012-12-08 03:53:00
10:53 PM,64.9,62.1,90,29.96,8.0,Calm,Calm,-,N/A,,Overcast,0,2012-12-08 04:53:00
11:53 PM,64.9,62.1,90,29.95,8.0,Calm,Calm,-,N/A,,Overcast,0,2012-12-08 05:53:00